Location: Black Skies Observatory
(44.7549°N, 79.7179°W)
Time: 15:34:06
(UTC-04:00)

X-37B - Visible Passes

Search period start: 31 October 2020 00:00
Search period end: 09 November 2020 23:00
Orbit: 382 x 392 km, 45.0° (Epoch: 15 October)

Date Brightness Start Highest point End Pass type
(mag) Time Alt. Az. Time Alt. Az. Time Alt. Az.
01 Nov 3.5 05:33:56 10° S 05:35:43 14° SE 05:37:30 10° ESE visible
02 Nov 2.0 06:10:26 10° SW 06:13:23 36° SSE 06:16:22 10° E visible
03 Nov 2.7 05:13:42 18° S 05:14:58 23° SSE 05:17:34 10° E visible
04 Nov 4.0 04:18:11 11° ESE 04:18:11 11° ESE 04:18:24 10° ESE visible
04 Nov 1.1 05:50:29 17° SW 05:52:46 55° SSE 05:55:54 10° E visible
05 Nov 2.2 04:54:50 33° SE 04:54:50 33° SE 04:57:15 10° E visible
05 Nov 0.6 06:27:35 10° W 06:30:46 88° N 06:33:59 10° E visible
06 Nov 0.6 05:31:23 46° WSW 05:32:12 76° SSE 05:35:23 10° E visible
07 Nov 3.3 04:35:35 21° E 04:35:35 21° E 04:36:48 10° E visible
07 Nov 0.5 06:07:52 16° W 06:10:15 83° N 06:13:28 10° E visible
08 Nov 0.8 05:12:01 68° E 05:12:01 68° E 05:14:52 10° E visible
09 Nov 4.2 04:16:09 11° E 04:16:09 11° E 04:16:16 10° E visible
09 Nov 0.5 05:48:25 32° W 05:49:45 87° N 05:52:57 10° E visible
